QPF
0.05 0.05 0.05 0.05 0.06 0.06 0.06 0.07 0.08 0.07 0.08 0.10 0.06 0.03 0.03 0.04 0.05 0.04 0.06 0.07 0.07 0.06 0.06 0.04 0.02 0.01 0.01 0.02 0.03 0.05 0.06 0.06 0.06 0.06 0.06 0.05 0.03 0.04
0.06 0.07 0.06 0.04 0.05 0.04 0.04 0.06 0.07 0.07 0.06 0.07 0.05 0.03 0.03 0.04 0.06 0.04 0.04 0.05 0.05 0.05 0.04 0.04 0.02 0.01 0.01 0.01 0.01 0.02 0.03 0.04 0.05 0.06 0.05 0.05 0.04 0.03
0.06 0.07 0.06 0.05 0.05 0.04 0.04 0.04 0.05 0.05 0.05 0.06 0.06 0.04 0.03 0.04 0.05 0.04 0.02 0.02 0.03 0.04 0.03 0.03 0.02 0.01 0.01 0.01 0.01 0.01 0.01 0.02 0.03 0.04 0.05 0.05 0.05 0.04
0.04 0.06 0.04 0.05 0.06 0.05 0.05 0.05 0.05 0.05 0.04 0.07 0.06 0.04 0.03 0.05 0.04 0.04 0.04 0.03 0.03 0.04 0.04 0.04 0.02 0.02 0.01 0.01 0.01 0.01 0.01 0.01 0.01 0.02 0.04 0.05 0.05 0.04
0.04 0.05 0.05 0.06 0.05 0.06 0.06 0.06 0.05 0.05 0.06 0.07 0.06 0.06 0.05 0.03 0.04 0.03 0.04 0.04 0.04 0.03 0.03 0.02 0.01 0.01 0.01 0.01 0.01 0.01 0.01 0.01 0.01 0.02 0.03 0.04 0.04 0.04
0.05 0.06 0.07 0.07 0.07 0.07 0.06 0.06 0.05 0.06 0.06 0.06 0.05 0.06 0.06 0.05 0.05 0.03 0.03 0.03 0.04 0.03 0.02 0.02 0.01 0.01 0.01 0.01 0.01 0.01 0.01 0.02 0.02 0.02 0.02 0.03 0.03 0.03
0.06 0.07 0.07 0.07 0.09 0.08 0.06 0.07 0.07 0.07 0.06 0.05 0.04 0.06 0.07 0.08 0.06 0.05 0.05 0.04 0.03 0.03 0.03 0.02 0.02 0.02 0.01 0.01 0.01 0.01 0.01 0.01 0.01 0.01 0.01 0.02 0.02 0.02
0.07 0.06 0.06 0.05 0.07 0.08 0.08 0.08 0.08 0.06 0.06 0.08 0.08 0.07 0.08 0.08 0.07 0.05 0.05 0.04 0.05 0.04 0.04 0.04 0.03 0.03 0.02 0.02 0.01 0.00 0.00 0.01 0.01 0.01 0.01 0.01 0.01 0.02
0.07 0.07 0.05 0.05 0.06 0.07 0.07 0.06 0.06 0.06 0.05 0.06 0.07 0.07 0.07 0.06 0.06 0.05 0.06 0.06 0.06 0.05 0.04 0.04 0.03 0.02 0.02 0.02 0.01 0.01 0.00 0.00 0.01 0.01 0.02 0.01 0.01 0.01
0.05 0.06 0.07 0.08 0.07 0.07 0.07 0.07 0.06 0.06 0.06 0.04 0.04 0.04 0.04 0.05 0.06 0.05 0.06 0.07 0.07 0.05 0.04 0.04 0.03 0.02 0.02 0.01 0.01 0.01 0.01 0.01 0.01 0.02 0.01 0.01 0.01 0.01
0.03 0.05 0.06 0.07 0.08 0.08 0.07 0.08 0.08 0.07 0.05 0.04 0.04 0.03 0.02 0.03 0.04 0.05 0.07 0.08 0.07 0.06 0.04 0.03 0.02 0.02 0.02 0.02 0.01 0.01 0.01 0.02 0.01 0.01 0.01 0.01 0.01 0.01
0.04 0.05 0.05 0.06 0.06 0.06 0.06 0.07 0.08 0.09 0.08 0.07 0.06 0.04 0.03 0.03 0.03 0.04 0.05 0.06 0.06 0.05 0.04 0.02 0.02 0.02 0.03 0.02 0.02 0.02 0.02 0.02 0.02 0.01 0.01 0.01 0.01 0.01
0.05 0.05 0.04 0.03 0.03 0.02 0.03 0.04 0.05 0.06 0.07 0.08 0.08 0.08 0.07 0.06 0.05 0.05 0.05 0.06 0.06 0.04 0.03 0.04 0.03 0.03 0.04 0.04 0.02 0.03 0.03 0.02 0.02 0.02 0.01 0.02 0.02 0.02
0.05 0.05 0.04 0.03 0.03 0.03 0.03 0.03 0.03 0.04 0.06 0.07 0.08 0.08 0.08 0.08 0.08 0.07 0.07 0.06 0.06 0.04 0.04 0.04 0.04 0.05 0.05 0.05 0.03 0.03 0.04 0.03 0.03 0.03 0.03 0.02 0.02 0.02
0.07 0.07 0.07 0.07 0.06 0.05 0.05 0.04 0.04 0.04 0.06 0.07 0.06 0.06 0.08 0.09 0.09 0.08 0.08 0.07 0.06 0.05 0.04 0.05 0.05 0.05 0.04 0.03 0.04 0.04 0.04 0.04 0.03 0.04 0.04 0.03 0.02 0.02
0.05 0.06 0.07 0.08 0.08 0.07 0.06 0.05 0.03 0.03 0.04 0.05 0.06 0.06 0.06 0.06 0.06 0.06 0.06 0.07 0.07 0.06 0.05 0.07 0.09 0.09 0.08 0.06 0.05 0.04 0.04 0.04 0.04 0.03 0.03 0.03 0.03 0.02
0.04 0.05 0.06 0.06 0.06 0.05 0.06 0.07 0.06 0.06 0.05 0.05 0.06 0.06 0.06 0.06 0.06 0.05 0.04 0.04 0.05 0.06 0.07 0.07 0.07 0.08 0.08 0.08 0.06 0.05 0.03 0.03 0.03 0.03 0.02 0.02 0.02 0.02
0.06 0.05 0.06 0.06 0.06 0.07 0.08 0.09 0.08 0.07 0.06 0.06 0.05 0.04 0.04 0.05 0.05 0.05 0.04 0.06 0.08 0.09 0.08 0.06 0.06 0.05 0.06 0.06 0.05 0.04 0.03 0.03 0.02 0.03 0.03 0.03 0.02 0.03
0.06 0.05 0.06 0.06 0.07 0.07 0.07 0.07 0.06 0.07 0.06 0.06 0.06 0.05 0.05 0.05 0.07 0.08 0.08 0.07 0.07 0.06 0.05 0.04 0.04 0.04 0.04 0.04 0.04 0.04 0.04 0.03 0.03 0.03 0.03 0.03 0.02 0.03
0.06 0.06 0.07 0.08 0.08 0.07 0.06 0.06 0.06 0.06 0.05 0.05 0.05 0.06 0.06 0.06 0.07 0.08 0.07 0.06 0.06 0.05 0.04 0.03 0.03 0.03 0.03 0.03 0.02 0.03 0.03 0.03 0.03 0.03 0.03 0.03 0.02 0.03
0.06 0.07 0.07 0.07 0.08 0.08 0.08 0.07 0.06 0.06 0.05 0.04 0.04 0.05 0.05 0.06 0.08 0.08 0.08 0.07 0.06 0.05 0.05 0.04 0.03 0.02 0.02 0.02 0.02 0.01 0.01 0.01 0.01 0.02 0.02 0.03 0.03 0.03
0.08 0.08 0.07 0.07 0.08 0.08 0.08 0.08 0.07 0.06 0.05 0.05 0.05 0.06 0.07 0.09 0.10 0.10 0.09 0.07 0.05 0.04 0.04 0.04 0.03 0.03 0.03 0.03 0.02 0.01 0.02 0.02 0.02 0.02 0.02 0.02 0.03 0.03
0.07 0.08 0.08 0.08 0.08 0.08 0.08 0.06 0.05 0.05 0.06 0.06 0.06 0.07 0.07 0.08 0.08 0.09 0.09 0.07 0.05 0.04 0.04 0.04 0.03 0.03 0.02 0.02 0.02 0.02 0.01 0.02 0.02 0.02 0.02 0.03 0.03 0.03
MSLP
1007.04 1007.35 1007.66 1007.96 1008.21 1008.39 1008.50 1008.54 1008.53 1008.49 1008.44 1008.42 1008.44 1008.53 1008.69 1008.93 1009.26 1009.66 1010.13 1010.65 1011.21 1011.78 1012.34 1012.86 1013.34 1013.75 1014.11 1014.42 1014.72 1015.02 1015.36 1015.74 1016.17 1016.62 1017.08 1017.50 1017.86 1018.12
1005.98 1006.22 1006.49 1006.77 1007.03 1007.26 1007.45 1007.60 1007.71 1007.80 1007.88 1007.97 1008.09 1008.24 1008.44 1008.70 1009.02 1009.41 1009.86 1010.38 1010.94 1011.52 1012.10 1012.65 1013.16 1013.61 1014.00 1014.35 1014.67 1014.99 1015.33 1015.70 1016.10 1016.54 1016.97 1017.36 1017.70 1017.95
1004.99 1005.14 1005.36 1005.60 1005.87 1006.14 1006.40 1006.64 1006.87 1007.09 1007.30 1007.51 1007.72 1007.94 1008.18 1008.46 1008.78 1009.16 1009.60 1010.09 1010.64 1011.22 1011.81 1012.39 1012.93 1013.42 1013.86 1014.24 1014.59 1014.93 1015.27 1015.63 1016.01 1016.40 1016.79 1017.14 1017.44 1017.66
1004.02 1004.09 1004.24 1004.45 1004.71 1005.01 1005.33 1005.67 1006.01 1006.35 1006.67 1006.99 1007.29 1007.58 1007.87 1008.18 1008.50 1008.87 1009.29 1009.77 1010.30 1010.88 1011.48 1012.09 1012.66 1013.20 1013.68 1014.11 1014.49 1014.85 1015.19 1015.54 1015.89 1016.24 1016.58 1016.88 1017.13 1017.31
1003.05 1003.04 1003.13 1003.31 1003.56 1003.88 1004.26 1004.67 1005.10 1005.54 1005.97 1006.38 1006.77 1007.13 1007.46 1007.79 1008.13 1008.50 1008.91 1009.39 1009.92 1010.51 1011.13 1011.76 1012.38 1012.96 1013.50 1013.97 1014.40 1014.78 1015.13 1015.46 1015.78 1016.08 1016.36 1016.61 1016.80 1016.95
1002.05 1001.97 1002.01 1002.16 1002.41 1002.76 1003.17 1003.64 1004.15 1004.67 1005.18 1005.67 1006.13 1006.54 1006.93 1007.29 1007.65 1008.04 1008.46 1008.95 1009.50 1010.11 1010.76 1011.43 1012.10 1012.74 1013.33 1013.86 1014.33 1014.73 1015.09 1015.41 1015.70 1015.95 1016.18 1016.37 1016.52 1016.63
1001.07 1000.93 1000.93 1001.06 1001.31 1001.67 1002.12 1002.63 1003.19 1003.76 1004.33 1004.88 1005.39 1005.86 1006.29 1006.69 1007.09 1007.50 1007.96 1008.47 1009.06 1009.71 1010.40 1011.13 1011.85 1012.55 1013.20 1013.78 1014.29 1014.73 1015.09 1015.40 1015.66 1015.88 1016.06 1016.20 1016.31 1016.39
1000.19 1000.00 999.97 1000.09 1000.35 1000.72 1001.18 1001.72 1002.31 1002.91 1003.51 1004.10 1004.64 1005.15 1005.61 1006.06 1006.49 1006.95 1007.45 1008.01 1008.64 1009.34 1010.08 1010.86 1011.65 1012.40 1013.11 1013.74 1014.29 1014.75 1015.13 1015.43 1015.67 1015.86 1016.00 1016.10 1016.18 1016.23
999.55 999.34 999.29 999.40 999.65 1000.03 1000.50 1001.04 1001.63 1002.25 1002.86 1003.45 1004.01 1004.54 1005.03 1005.50 1005.98 1006.47 1007.01 1007.62 1008.29 1009.03 1009.83 1010.65 1011.48 1012.29 1013.03 1013.71 1014.29 1014.77 1015.16 1015.47 1015.69 1015.86 1015.98 1016.05 1016.10 1016.14
999.32 999.09 999.03 999.14 999.39 999.76 1000.22 1000.76 1001.33 1001.93 1002.52 1003.10 1003.66 1004.18 1004.68 1005.16 1005.65 1006.17 1006.74 1007.37 1008.07 1008.83 1009.65 1010.50 1011.36 1012.19 1012.96 1013.66 1014.26 1014.76 1015.16 1015.47 1015.69 1015.85 1015.95 1016.02 1016.06 1016.09
999.60 999.37 999.31 999.42 999.66 1000.02 1000.46 1000.97 1001.52 1002.08 1002.64 1003.18 1003.71 1004.20 1004.68 1005.15 1005.63 1006.15 1006.71 1007.33 1008.02 1008.77 1009.58 1010.43 1011.27 1012.10 1012.87 1013.57 1014.18 1014.69 1015.10 1015.41 1015.64 1015.80 1015.91 1015.98 1016.03 1016.07
1000.43 1000.21 1000.17 1000.27 1000.50 1000.84 1001.25 1001.72 1002.23 1002.74 1003.25 1003.74 1004.21 1004.66 1005.09 1005.52 1005.96 1006.43 1006.95 1007.53 1008.17 1008.88 1009.63 1010.43 1011.23 1012.02 1012.76 1013.44 1014.04 1014.55 1014.96 1015.29 1015.53 1015.71 1015.83 1015.92 1015.99 1016.06
1001.76 1001.56 1001.53 1001.62 1001.84 1002.15 1002.53 1002.95 1003.40 1003.86 1004.31 1004.74 1005.14 1005.53 1005.89 1006.26 1006.63 1007.03 1007.47 1007.96 1008.52 1009.14 1009.81 1010.52 1011.25 1011.97 1012.66 1013.30 1013.87 1014.37 1014.78 1015.12 1015.38 1015.58 1015.74 1015.86 1015.97 1016.07
1003.44 1003.27 1003.24 1003.33 1003.52 1003.80 1004.14 1004.51 1004.90 1005.29 1005.68 1006.04 1006.38 1006.69 1006.98 1007.26 1007.55 1007.86 1008.21 1008.60 1009.05 1009.56 1010.12 1010.72 1011.35 1011.98 1012.60 1013.18 1013.72 1014.19 1014.60 1014.95 1015.23 1015.47 1015.66 1015.82 1015.97 1016.11
1005.25 1005.11 1005.08 1005.16 1005.33 1005.57 1005.85 1006.17 1006.51 1006.84 1007.16 1007.46 1007.73 1007.97 1008.19 1008.40 1008.61 1008.83 1009.08 1009.37 1009.71 1010.10 1010.54 1011.03 1011.55 1012.09 1012.63 1013.15 1013.64 1014.09 1014.49 1014.84 1015.15 1015.41 1015.64 1015.85 1016.04 1016.22
1006.98 1006.86 1006.83 1006.89 1007.03 1007.22 1007.46 1007.73 1008.00 1008.28 1008.54 1008.79 1009.00 1009.19 1009.36 1009.51 1009.66 1009.81 1009.99 1010.19 1010.44 1010.74 1011.08 1011.47 1011.89 1012.34 1012.79 1013.25 1013.68 1014.10 1014.48 1014.83 1015.15 1015.44 1015.70 1015.94 1016.17 1016.38
1008.45 1008.34 1008.31 1008.35 1008.45 1008.60 1008.79 1009.00 1009.23 1009.46 1009.67 1009.88 1010.06 1010.21 1010.35 1010.48 1010.59 1010.71 1010.85 1011.01 1011.20 1011.44 1011.71 1012.02 1012.37 1012.74 1013.12 1013.51 1013.89 1014.26 1014.62 1014.95 1015.27 1015.56 1015.84 1016.10 1016.34 1016.58
1009.55 1009.46 1009.42 1009.44 1009.50 1009.61 1009.76 1009.92 1010.11 1010.29 1010.48 1010.65 1010.81 1010.96 1011.09 1011.22 1011.34 1011.46 1011.60 1011.76 1011.94 1012.15 1012.40 1012.67 1012.96 1013.27 1013.59 1013.92 1014.25 1014.57 1014.88 1015.18 1015.47 1015.75 1016.02 1016.27 1016.52 1016.76
1010.32 1010.23 1010.19 1010.19 1010.23 1010.31 1010.42 1010.55 1010.69 1010.85 1011.00 1011.16 1011.31 1011.46 1011.61 1011.76 1011.91 1012.06 1012.24 1012.43 1012.64 1012.86 1013.11 1013.36 1013.63 1013.90 1014.17 1014.44 1014.70 1014.96 1015.21 1015.46 1015.70 1015.94 1016.18 1016.41 1016.63 1016.85
1010.82 1010.76 1010.73 1010.73 1010.76 1010.81 1010.90 1011.00 1011.12 1011.24 1011.38 1011.52 1011.67 1011.82 1011.98 1012.16 1012.35 1012.55 1012.78 1013.02 1013.27 1013.53 1013.80 1014.06 1014.31 1014.55 1014.78 1014.99 1015.18 1015.37 1015.54 1015.72 1015.90 1016.08 1016.26 1016.44 1016.62 1016.80
1011.21 1011.18 1011.17 1011.18 1011.22 1011.28 1011.35 1011.44 1011.53 1011.64 1011.75 1011.87 1012.01 1012.16 1012.32 1012.52 1012.74 1012.98 1013.25 1013.54 1013.84 1014.13 1014.42 1014.70 1014.94 1015.15 1015.33 1015.48 1015.60 1015.70 1015.79 1015.89 1015.98 1016.08 1016.20 1016.32 1016.44 1016.57
1011.58 1011.59 1011.62 1011.67 1011.74 1011.82 1011.90 1011.99 1012.07 1012.16 1012.25 1012.34 1012.45 1012.57 1012.73 1012.91 1013.13 1013.39 1013.68 1013.99 1014.32 1014.64 1014.94 1015.21 1015.43 1015.61 1015.74 1015.83 1015.87 1015.89 1015.90 1015.90 1015.91 1015.94 1015.98 1016.03 1016.10 1016.16
1012.00 1012.06 1012.15 1012.26 1012.37 1012.49 1012.60 1012.70 1012.79 1012.86 1012.92 1012.98 1013.04 1013.12 1013.23 1013.38 1013.57 1013.80 1014.08 1014.38 1014.69 1015.01 1015.30 1015.54 1015.74 1015.88 1015.96 1015.98 1015.95 1015.90 1015.82 1015.75 1015.68 1015.63 1015.60 1015.60 1015.61 1015.63
Thickness
5754 5753 5751 5750 5749 5748 5746 5742 5734 5727 5728 5733 5735 5738 5738 5736 5733 5730 5729 5726 5725 5723 5721 5720 5719 5718 5717 5716 5715 5714 5714 5713 5712 5711 5710 5708 5707 5706
5751 5749 5747 5747 5746 5745 5744 5742 5739 5732 5726 5731 5733 5735 5735 5734 5731 5729 5727 5725 5723 5722 5719 5718 5717 5715 5714 5713 5712 5711 5710 5709 5708 5707 5706 5705 5704 5703
5748 5746 5744 5743 5741 5741 5740 5739 5736 5733 5726 5728 5731 5732 5732 5730 5728 5727 5725 5723 5721 5720 5718 5716 5714 5713 5712 5710 5709 5707 5706 5705 5704 5703 5702 5701 5700 5699
5745 5743 5741 5741 5738 5737 5735 5734 5733 5732 5727 5723 5725 5726 5727 5727 5725 5724 5723 5722 5720 5718 5716 5714 5712 5711 5709 5707 5706 5704 5703 5701 5700 5699 5698 5697 5697 5696
5742 5739 5738 5736 5733 5732 5731 5730 5729 5729 5727 5723 5721 5723 5722 5723 5720 5719 5719 5718 5718 5716 5713 5711 5709 5708 5706 5704 5702 5700 5699 5698 5697 5696 5695 5694 5693 5691
5738 5736 5735 5732 5730 5728 5727 5725 5725 5723 5722 5719 5718 5717 5716 5717 5715 5711 5710 5711 5712 5712 5709 5707 5706 5704 5702 5701 5699 5697 5696 5694 5693 5692 5691 5690 5688 5687
5733 5732 5731 5729 5727 5724 5722 5720 5719 5717 5715 5713 5712 5711 5709 5708 5707 5707 5704 5705 5705 5707 5704 5703 5701 5699 5697 5696 5695 5693 5692 5690 5689 5688 5687 5685 5684 5683
5727 5727 5726 5724 5722 5720 5717 5716 5714 5712 5709 5708 5707 5705 5704 5705 5704 5703 5700 5697 5695 5700 5697 5696 5697 5694 5694 5693 5691 5689 5687 5686 5684 5683 5682 5681 5680 5678
5723 5721 5722 5722 5718 5715 5713 5711 5710 5709 5708 5705 5703 5702 5701 5702 5700 5697 5695 5692 5691 5694 5692 5689 5691 5689 5689 5688 5686 5684 5682 5680 5679 5678 5676 5676 5674 5673
5719 5717 5715 5714 5713 5710 5709 5707 5706 5705 5704 5702 5702 5700 5700 5699 5696 5694 5691 5689 5688 5689 5687 5681 5683 5683 5684 5682 5681 5678 5676 5675 5673 5672 5670 5669 5668 5667
5714 5713 5711 5709 5707 5705 5703 5701 5699 5699 5700 5698 5696 5695 5694 5692 5691 5687 5684 5680 5677 5679 5681 5677 5676 5676 5676 5675 5674 5672 5670 5669 5667 5665 5664 5663 5662 5661
5707 5707 5705 5703 5700 5698 5696 5694 5691 5691 5692 5691 5689 5688 5687 5685 5684 5681 5678 5674 5672 5671 5674 5671 5668 5667 5665 5668 5667 5665 5663 5661 5660 5659 5658 5657 5655 5654
5700 5700 5699 5696 5692 5690 5688 5687 5686 5685 5684 5684 5683 5682 5681 5679 5677 5676 5674 5671 5667 5665 5667 5665 5661 5660 5657 5656 5658 5658 5657 5655 5653 5652 5651 5650 5649 5647
5693 5693 5691 5688 5685 5682 5681 5681 5680 5678 5678 5677 5676 5675 5674 5672 5671 5670 5668 5666 5665 5662 5661 5659 5656 5653 5650 5648 5648 5650 5650 5649 5648 5647 5645 5643 5641 5640
5685 5684 5682 5680 5678 5676 5674 5673 5672 5671 5670 5669 5668 5667 5667 5666 5665 5663 5661 5660 5658 5657 5657 5654 5651 5648 5645 5642 5641 5641 5640 5641 5641 5640 5638 5636 5635 5633
5675 5675 5673 5672 5670 5669 5668 5665 5664 5665 5664 5663 5661 5661 5660 5659 5657 5655 5653 5651 5649 5649 5650 5649 5646 5642 5638 5637 5635 5633 5633 5632 5633 5633 5631 5630 5629 5628
5665 5665 5665 5664 5662 5662 5662 5661 5659 5658 5657 5657 5654 5653 5651 5650 5649 5648 5646 5644 5641 5640 5640 5640 5639 5636 5633 5630 5627 5626 5626 5625 5625 5624 5622 5621 5621 5621
5655 5658 5659 5659 5657 5657 5655 5654 5653 5651 5650 5649 5647 5646 5644 5643 5641 5640 5638 5636 5633 5632 5631 5631 5629 5626 5624 5623 5622 5620 5618 5617 5616 5615 5614 5612 5611 5613
5649 5652 5652 5652 5652 5651 5650 5648 5647 5645 5643 5641 5639 5638 5637 5636 5634 5632 5630 5628 5626 5624 5623 5622 5621 5618 5613 5611 5612 5613 5611 5609 5608 5606 5605 5604 5603 5604
5644 5646 5646 5646 5646 5645 5644 5642 5640 5638 5636 5634 5633 5632 5630 5628 5626 5624 5622 5621 5619 5617 5615 5614 5613 5611 5608 5605 5604 5604 5604 5602 5600 5598 5597 5597 5597 5597
5640 5640 5641 5641 5640 5639 5638 5636 5633 5631 5629 5627 5626 5625 5623 5620 5619 5617 5615 5612 5610 5608 5606 5605 5605 5604 5602 5599 5596 5596 5596 5596 5595 5592 5591 5589 5588 5588
5634 5634 5634 5634 5633 5632 5630 5628 5626 5623 5621 5620 5619 5617 5616 5613 5611 5609 5607 5605 5603 5601 5600 5598 5597 5596 5593 5590 5588 5588 5587 5588 5587 5587 5585 5584 5582 5581
5626 5626 5626 5625 5624 5624 5622 5619 5617 5614 5613 5611 5610 5609 5608 5606 5604 5602 5600 5598 5596 5594 5592 5590 5589 5587 5586 5584 5582 5581 5581 5580 5579 5578 5577 5577 5577 5576